Presure
397 379 365 378 432 405 346 271 269 265 246 218 236 209 208 206 202 197 198 204 183 194 199 201 196 192 167 224 213 217 169 196 207 175 204 203 202 200 206 213 213 212 210 212
471 411 386 381 356 387 375 341 316 284 279 255 240 222 234 231 214 211 200 201 204 198 196 203 188 210 217 218 226 197 196 221 217 211 214 170 212 206 215 213 214 214 220 226
384 391 352 355 351 348 336 348 344 339 341 324 286 251 238 234 226 222 224 205 208 164 206 208 221 213 218 217 217 212 209 213 219 215 209 220 225 212 216 221 218 220 227 228
357 384 352 340 363 349 332 349 357 366 356 354 339 296 270 250 243 238 223 179 220 217 217 217 215 202 215 209 208 210 216 222 219 219 218 214 217 218 222 217 225 232 255 252
369 501 364 344 318 331 324 305 317 320 326 365 404 392 340 288 255 243 242 239 227 233 231 220 217 223 217 213 215 220 224 223 218 223 212 215 222 219 224 227 239 263 250 252
358 440 490 353 324 313 309 302 305 313 325 330 333 334 390 353 314 282 256 248 248 240 229 231 227 227 227 226 225 226 228 226 222 228 223 225 229 231 233 241 255 253 279 266
441 418 390 379 338 329 319 311 306 301 301 312 332 339 332 330 332 315 291 268 258 251 246 249 244 238 235 237 229 233 229 223 227 233 234 235 240 244 242 264 273 274 280 264
379 393 419 360 332 354 325 319 318 306 305 306 336 339 349 345 339 325 323 307 285 277 262 253 248 253 263 256 250 242 240 240 240 240 254 249 260 274 276 271 268 248 178 164
389 359 341 319 323 356 325 317 307 314 319 322 314 314 328 339 351 334 329 322 308 299 289 281 253 265 260 260 262 270 260 253 260 263 267 275 268 263 263 272 147 91 159 255
384 366 348 336 324 319 316 327 319 317 319 311 265 323 325 338 328 326 323 319 316 307 298 298 289 296 279 287 271 268 266 265 271 278 280 270 276 280 267 169 203 316 315 296
363 346 332 330 314 329 338 308 316 324 322 320 327 339 344 367 353 335 321 313 310 310 312 313 309 309 309 310 298 290 287 289 292 286 284 296 273 244 298 320 327 320 320 332
315 306 303 315 316 310 301 341 338 340 351 337 387 356 354 347 343 344 330 321 316 316 316 313 307 301 295 295 297 288 297 293 294 300 336 320 316 324 316 315 319 325 332 352
319 328 325 337 346 335 334 329 328 344 349 353 370 386 376 385 343 345 333 334 331 324 321 325 321 320 327 330 334 337 333 327 325 332 336 344 339 337 328 329 330 338 346 314
333 330 334 302 344 355 343 340 345 364 326 384 402 388 353 341 338 342 337 323 320 325 330 323 327 321 324 330 332 331 341 350 176 156 340 323 321 323 335 333 336 337 305 287
355 354 348 338 361 355 363 377 381 363 362 363 343 339 340 345 333 321 320 323 326 325 317 317 327 324 339 353 362 332 327 274 328 321 318 332 344 365 365 356 312 294 287 290
349 350 349 347 359 376 414 361 347 338 328 320 316 316 319 319 320 322 320 319 317 316 315 324 344 334 339 338 324 324 322 318 317 313 318 320 314 309 300 290 285 288 286 294
357 369 389 403 390 329 324 318 317 314 314 311 310 310 313 314 316 319 313 310 312 315 330 320 316 312 314 324 317 321 317 321 310 301 301 294 292 291 284 284 286 289 279 274
342 348 333 327 327 323 313 307 306 306 307 306 305 309 303 303 310 321 311 313 306 312 310 337 321 318 311 317 308 312 305 303 295 293 290 284 284 277 276 288 279 265 272 276
329 326 321 314 311 306 302 299 298 295 298 297 306 306 301 307 337 323 313 309 320 315 321 320 322 312 316 299 295 298 292 286 284 281 281 278 272 272 277 271 259 281 267 258
308 307 304 303 303 304 299 301 302 300 294 301 298 310 300 313 314 317 314 307 319 308 304 294 295 295 292 288 290 281 277 278 281 277 273 268 271 276 264 258 279 268 258 257
303 301 303 304 302 306 299 294 297 296 298 302 296 306 303 308 309 308 306 305 321 288 289 292 285 284 278 280 276 274 274 269 264 267 273 274 269 264 260 270 270 260 256 250
301 305 306 309 298 298 294 296 301 311 316 311 303 301 298 297 303 304 298 310 287 286 279 277 277 272 272 271 270 262 256 259 263 263 264 263 263 263 260 257 260 260 255 253
306 304 300 315 302 307 314 301 311 308 307 304 294 289 286 284 281 284 279 273 270 270 272 270 265 261 257 261 267 267 264 259 256 258 264 269 266 266 264 261 260 258 256 253
319 312 310 314 308 307 306 310 303 293 293 286 283 283 276 274 273 268 267 268 264 263 270 268 266 266 263 265 267 267 269 270 271 273 274 274 275 272 269 268 269 268 264 262
318 314 318 313 298 304 293 292 289 281 281 276 268 268 267 265 264 263 265 268 269 263 261 258 262 262 260 259 259 260 260 260 261 262 264 266 267 269 270 271 271 272 271 270
329 305 310 296 290 290 288 281 276 271 268 268 269 266 271 267 264 262 264 265 264 264 263 260 259 258 258 259 261 261 262 266 273 274 273 274 274 274 278 284 286 286 282 280
323 313 296 286 288 281 278 273 269 266 267 266 268 264 257 255 259 255 255 258 259 255 254 254 258 256 257 260 261 278 270 260 259 259 259 358 360 363 361 403 440 456 444 447
Wind_Speed
68 82 94 88 51 79 120 158 163 163 152 146 152 132 130 132 129 128 124 127 116 117 122 124 119 118 100 126 126 121 108 112 114 108 112 113 112 109 114 115 110 107 106 101
71 79 78 70 82 56 77 114 144 160 158 148 146 137 143 143 137 141 127 131 135 124 123 122 112 131 130 124 119 109 114 112 114 110 113 82 117 114 113 111 109 105 110 108
57 68 80 79 81 77 99 89 101 119 126 141 146 144 147 145 139 140 145 132 136 86 137 135 132 128 127 123 118 116 114 112 112 107 109 112 112 109 110 109 108 108 109 114
56 78 78 82 62 62 77 72 69 71 92 104 123 136 139 144 144 141 138 103 135 136 132 132 129 121 128 120 118 118 117 115 117 111 110 112 111 111 110 106 107 117 108 107
55 73 88 83 82 73 81 100 92 99 105 58 54 67 111 134 140 141 142 139 137 139 138 135 132 132 126 119 120 121 122 116 118 115 111 114 117 106 111 114 118 113 106 94
51 65 75 90 86 91 91 94 94 85 83 90 94 89 63 89 115 135 142 140 139 139 133 134 133 133 131 126 123 123 122 121 120 119 122 122 119 115 118 117 112 108 99 89
48 61 79 88 93 91 93 92 93 96 96 98 89 83 79 82 91 105 124 133 137 137 136 135 134 132 129 129 124 126 124 119 121 121 124 124 120 118 117 110 102 96 91 84
49 51 54 79 74 91 87 83 87 90 91 94 77 76 72 70 78 88 92 107 119 125 133 134 130 129 125 126 128 125 127 129 128 125 124 119 119 106 100 99 88 77 39 35
63 58 62 66 68 69 77 84 87 91 91 92 93 88 83 73 68 73 77 81 93 106 115 119 114 124 124 123 119 118 119 120 123 118 117 116 106 101 94 98 36 19 34 71
63 65 65 64 63 70 76 87 89 96 99 94 67 83 75 68 65 68 69 73 78 87 96 100 106 105 118 116 117 117 116 115 115 109 106 106 101 99 94 45 58 80 67 69
49 53 58 62 72 72 83 84 88 90 89 87 83 74 72 61 60 63 67 71 74 75 77 80 83 84 86 87 97 101 102 99 97 97 99 95 93 74 90 79 70 65 57 49
56 55 54 60 66 64 61 72 76 72 71 65 59 54 52 50 51 58 65 68 71 71 72 75 78 81 84 86 85 90 88 92 94 95 77 79 74 66 66 66 64 55 48 44
51 62 58 60 66 71 71 71 67 66 51 52 55 55 44 47 51 51 52 55 58 60 60 60 63 66 62 63 61 62 62 63 64 62 59 51 51 51 55 54 49 44 37 27
55 49 47 31 44 60 63 54 52 52 40 42 43 40 33 40 42 39 45 49 50 50 48 49 51 45 48 46 45 46 45 40 30 32 35 40 42 44 48 42 37 31 27 30
59 57 38 30 30 29 33 38 39 34 28 26 25 26 29 35 36 38 39 39 40 38 39 40 38 36 33 30 27 35 35 33 31 26 30 31 31 30 35 33 26 27 29 28
41 38 37 29 35 32 32 30 32 30 28 25 25 27 27 29 31 30 29 32 30 31 32 30 22 21 20 23 25 28 31 27 20 22 23 20 20 21 22 24 27 28 26 24
22 24 27 32 31 41 40 37 34 32 30 29 27 27 25 24 24 26 26 27 26 26 22 21 23 24 24 28 27 28 24 20 18 19 22 23 23 24 26 26 25 24 24 23
34 37 44 46 45 42 40 37 35 31 28 26 25 27 27 25 26 29 28 27 26 21 21 31 34 30 25 21 16 13 18 19 20 22 24 23 24 25 25 24 24 24 24 24
42 43 44 44 43 42 39 36 35 31 28 25 25 26 26 23 26 29 28 24 22 22 25 28 29 19 15 19 19 19 20 20 22 23 23 23 23 24 24 23 24 25 26 26
43 44 42 42 41 40 39 37 37 35 31 30 27 26 24 22 21 22 24 19 23 18 24 25 24 23 22 20 18 20 20 20 21 21 22 23 23 23 23 24 26 28 27 27
35 36 39 39 39 41 38 36 35 30 31 29 26 30 27 24 23 20 19 16 17 29 26 25 23 21 20 18 19 18 18 18 19 19 19 20 21 22 23 24 26 27 28 28
29 32 34 35 31 30 27 28 26 30 34 30 28 30 29 27 25 26 29 23 30 28 25 23 21 20 18 17 18 18 19 18 17 17 18 20 21 23 25 26 27 29 30 32
25 24 25 29 25 20 31 23 23 27 29 34 35 36 35 36 34 33 32 30 28 27 24 23 22 20 19 17 16 16 17 18 19 20 21 23 25 27 29 31 32 33 35 35
33 32 30 35 37 35 32 27 30 35 37 38 37 36 36 34 32 31 28 26 24 22 19 17 16 14 14 12 12 13 13 15 17 19 22 25 28 30 32 33 35 37 39 41
30 29 30 33 36 35 39 39 40 40 38 38 36 33 31 30 28 25 23 22 20 18 17 16 13 12 11 11 12 13 15 17 19 22 25 28 31 33 36 38 39 41 43 44
26 34 33 43 43 40 41 42 40 39 38 36 34 31 29 27 25 23 21 19 17 15 14 12 11 10 11 12 14 15 17 20 23 26 28 32 34 37 40 44 46 46 48 49
35 39 42 40 40 40 39 39 37 34 32 30 30 28 27 24 21 19 17 16 14 13 11 10 10 10 11 14 16 17 18 19 22 25 28 18 19 21 24 18 17 4 5 15
Wind_Direction
224 230 243 243 227 235 244 246 247 250 246 249 250 252 253 251 253 254 255 257 254 256 260 261 261 262 263 268 270 271 269 269 270 272 272 276 277 279 280 281 284 285 286 287
209 217 231 227 237 212 225 241 246 247 247 245 248 249 251 251 252 253 255 257 258 258 260 260 257 266 268 269 268 265 266 269 269 272 274 274 275 277 280 281 283 287 286 291
229 201 221 226 228 225 237 235 240 245 248 244 241 244 249 250 249 250 252 254 256 255 258 261 262 263 265 266 267 267 268 269 270 271 272 275 277 275 279 282 284 285 290 288
228 208 215 227 211 218 235 238 241 248 248 247 247 242 241 245 250 250 252 251 254 256 257 258 259 260 262 263 264 266 268 271 271 272 273 275 276 278 280 282 286 288 289 290
225 208 208 211 222 211 221 238 239 244 248 249 230 236 241 240 242 247 251 251 252 254 254 256 258 260 262 262 264 267 269 270 272 274 274 275 277 279 284 285 286 287 288 290
220 203 209 206 215 223 226 235 240 242 245 249 247 245 237 241 244 242 244 248 249 251 254 255 256 258 260 262 266 268 269 270 272 273 273 275 278 282 282 285 287 286 288 288
196 197 196 194 206 217 222 228 231 241 245 249 251 248 240 238 240 242 242 244 247 250 252 252 254 257 260 262 265 265 266 268 271 273 273 275 278 280 282 283 282 284 287 289
195 177 183 198 213 214 219 226 232 236 240 246 245 247 244 237 237 239 242 244 246 247 248 251 254 255 256 258 260 263 264 265 268 270 272 274 277 281 279 280 283 285 283 289
176 188 183 202 207 207 211 221 225 230 233 233 242 247 248 244 238 239 239 241 245 246 247 246 254 253 257 261 262 261 264 265 268 270 273 273 277 280 280 283 271 261 283 286
183 186 190 196 207 209 212 215 221 226 229 240 245 244 252 248 246 243 243 245 244 246 249 251 251 252 255 257 260 262 262 264 267 270 272 275 278 278 282 273 276 277 276 277
157 175 186 194 207 205 207 223 225 229 233 239 243 246 247 243 238 237 238 240 242 244 247 250 252 253 255 257 259 261 262 265 267 270 275 274 278 273 274 274 278 282 285 277
184 201 211 210 211 218 225 217 224 229 231 243 240 243 244 237 231 230 232 236 240 243 245 247 250 253 256 259 258 263 260 262 263 265 263 266 267 267 270 272 275 278 274 272
201 195 209 207 212 217 221 229 235 239 246 248 247 247 233 227 228 227 229 233 237 240 242 244 246 249 251 253 252 253 254 256 258 257 260 259 258 253 259 263 266 270 258 239
202 208 218 205 221 221 233 235 238 238 234 237 228 214 207 214 218 219 222 229 234 237 238 241 246 250 251 253 253 253 252 247 249 259 245 257 266 268 265 264 262 246 228 232
206 211 213 212 227 220 232 234 219 201 204 191 190 195 199 204 205 210 216 222 227 230 235 239 242 246 249 240 228 236 242 240 244 248 249 249 249 254 250 242 222 221 225 226
215 221 221 212 233 234 223 156 158 158 162 166 171 177 182 189 196 200 205 213 219 223 227 227 221 218 210 199 217 220 228 240 245 242 238 229 216 207 207 212 217 219 220 216
172 184 194 199 178 145 147 147 145 147 153 157 164 170 174 182 186 189 194 203 209 211 204 205 199 205 215 206 215 227 236 237 222 214 209 206 203 203 209 212 213 209 211 215
137 139 139 143 141 137 140 142 144 147 149 155 162 165 166 174 181 182 190 186 202 202 208 179 195 198 214 218 214 212 200 199 196 197 200 200 200 206 209 204 206 215 216 209
134 135 134 136 137 139 140 142 141 144 150 158 159 167 168 164 162 165 173 191 185 188 190 196 198 193 199 179 182 192 184 183 190 196 198 202 205 211 209 211 221 213 211 218
137 138 140 141 141 140 142 142 141 146 154 157 162 168 157 154 166 176 180 179 189 200 163 153 159 169 174 174 176 177 182 186 193 198 202 207 208 211 218 223 215 216 223 226
139 143 142 146 149 145 147 151 155 158 159 158 159 149 147 153 163 166 168 175 196 158 159 159 162 165 164 166 173 181 187 195 203 209 214 216 218 224 230 229 226 229 232 237
139 143 146 149 148 145 144 148 158 162 152 157 144 138 134 134 136 138 141 142 147 150 153 156 158 160 165 172 181 190 202 208 213 219 225 229 233 236 237 240 240 239 242 246
152 152 147 152 141 148 158 154 160 146 140 139 136 135 136 139 139 138 141 145 148 149 151 154 161 170 179 185 194 204 211 219 226 234 238 239 242 243 243 244 245 245 247 248
159 157 155 156 155 164 162 160 140 138 138 138 138 138 138 139 140 143 146 147 151 153 149 154 164 172 183 191 203 217 231 241 248 252 255 255 255 254 253 253 251 250 251 252
153 151 159 157 137 141 139 139 139 140 139 137 138 139 139 141 143 147 146 146 149 154 160 168 176 186 199 214 227 240 250 258 265 268 270 270 269 267 265 263 261 259 258 257
155 148 150 143 142 142 141 142 142 143 144 142 141 141 140 142 144 148 149 149 152 157 165 175 189 206 223 238 250 259 267 275 278 279 279 278 277 275 273 268 265 262 259 258
139 139 139 141 141 141 142 143 145 145 143 142 143 145 149 151 152 157 159 163 166 177 189 203 219 235 251 263 271 279 281 282 285 287 288 306 310 310 301 341 3 356 228 244